> Flugplatz > 
Bitte achten Sie beim Anflug auf mögliche Fallschirmspringer auf der Nord seite desPlatzes, kontaktieren Sie zur Sicherheit den Flugleiter auf Leutkirch INFO 122,875.
Zollabfertigung:
für Ein- und Ausflug bei Voranmeldung mindestens 3 Stunden, nur Personenverkehr – keine Warenabfertigung.
Günstig Tanken:
Avgas 100 II · Super 95 · Jet A1 · Diesel
Achtung! Sommer-Öffnungszeiten:
15.03.2016 – 31.10.2016:
Täglich 09:00 – SS+30/20:00 (loc)
So/Hol  10:30 – SS+30/20:00 (loc)

Weitere Informationen finden Sie in unserem Newsbereich.

Nutzen Sie unsere Online-Anmeldung zur Zoll- und Passkontrolle.
Aktuelles:
Sicherheits- und Servicehinweise:
2016/06/28 19:20 EDJA 281920Z 23006KT CAVOK 20/10 Q1016
2016/06/29 01:20 EDNY 290120Z AUTO VRB02KT 9999 2600/ BKN057 BKN120 16/14 Q1016
2016/06/29 01:20 ETHL 290120Z 23004KT 9999 SCT040 BKN120 16/14 Q1016 BLU
Aktuelle METAR Daten (Memmingen, Friedrichshafen, Laupheim):